Consulta los datos en tiempo real de la estación meteorológica de Parc Astronòmic del Montsec
| Hora UTC | 15:00 |
|---|---|
| Temperatura | 16.0 ºC |
| Humedad | 69.0 % |
| Presión | 1011.2 hPa |
| Pluja | 1.4 mm |
| Velocidad viento | 6.4 km/h |
| Dirección viento | N |
| Temperatura (ºC) | Humedad (%) | Presión (hPa) | Velocidad viento (km/h) | Precipitación (mm) | ||||||||||||
|---|---|---|---|---|---|---|---|---|---|---|---|---|---|---|---|---|
| Hora UTC | Aire | Humedad | Presión | Vel. | Dir. | Vel. Max | Dir. | Intent. máx 5 min. | ||||||||
| 00:10 | 11.2 | 93.0 | 1014.5 | 3.2 | 3.2 | 0.0 | ||||||||||
| 00:25 | 11.2 | 93.0 | 1014.6 | 6.4 | N | 6.4 | N | 0.0 | ||||||||
| 00:40 | 11.1 | 93.0 | 1014.5 | 1.6 | 6.4 | N | 0.0 | |||||||||
| 00:55 | 11.1 | 92.0 | 1014.6 | 3.2 | N | 6.4 | N | 0.0 | ||||||||
| 01:10 | 11.2 | 92.0 | 1014.6 | 6.4 | N | 0.0 | ||||||||||
| 01:25 | 11.1 | 92.0 | 1014.2 | 6.4 | N | 6.4 | N | 0.0 | ||||||||
| 01:40 | 11.1 | 92.0 | 1013.9 | 1.6 | 6.4 | N | 0.0 | |||||||||
| 01:55 | 11.1 | 92.0 | 1013.7 | 1.6 | N | 6.4 | N | 0.0 | ||||||||
| 02:10 | 10.9 | 92.0 | 1013.4 | 6.4 | 6.4 | ESE | 0.0 | |||||||||
| 02:25 | 10.8 | 92.0 | 1013.5 | 1.6 | N | 6.4 | ESE | 0.0 | ||||||||
| 02:40 | 10.8 | 92.0 | 1013.5 | 6.4 | ESE | 0.0 | ||||||||||
| 02:55 | 10.7 | 91.0 | 1013.5 | NNE | 6.4 | ESE | 0.0 | |||||||||
| 03:10 | 10.7 | 92.0 | 1013.3 | 6.4 | 6.4 | ENE | 0.0 | |||||||||
| 03:25 | 10.7 | 91.0 | 1013.3 | NNE | 6.4 | ENE | 0.0 | |||||||||
| 03:40 | 10.7 | 91.0 | 1013.2 | 6.4 | ENE | 0.0 | ||||||||||
| 03:55 | 10.7 | 91.0 | 1013.1 | NNE | 6.4 | ENE | 0.0 | |||||||||
| 04:10 | 10.7 | 91.0 | 1013.2 | 3.2 | 6.4 | ENE | 0.0 | |||||||||
| 04:25 | 10.7 | 91.0 | 1013.3 | NNE | 6.4 | ENE | 0.0 | |||||||||
| 04:40 | 10.7 | 91.0 | 1013.4 | 1.6 | 6.4 | ENE | 0.0 | |||||||||
| 04:55 | 10.8 | 92.0 | 1013.6 | NNE | 6.4 | ENE | 0.0 | |||||||||
| 05:10 | 10.8 | 92.0 | 1014.2 | 1.6 | 6.4 | ENE | 0.4 | |||||||||
| 05:25 | 10.7 | 92.0 | 1013.7 | 3.2 | N | 6.4 | ENE | 0.6 | ||||||||
| 05:40 | 10.5 | 92.0 | 1013.1 | 8.0 | 8.0 | E | 0.2 | |||||||||
| 05:55 | 10.6 | 92.0 | 1012.7 | 8.0 | N | 8.0 | N | 0.2 | ||||||||
| 06:10 | 10.6 | 92.0 | 1012.6 | 8.0 | 8.0 | ESE | 0.0 | |||||||||
| 06:25 | 10.4 | 92.0 | 1012.2 | 3.2 | N | 8.0 | ESE | 0.0 | ||||||||
| 06:40 | 10.4 | 93.0 | 1012.2 | 3.2 | 8.0 | ESE | 0.0 | |||||||||
| 06:55 | 10.3 | 93.0 | 1012.4 | 3.2 | N | 8.0 | ESE | 0.0 | ||||||||
| 07:10 | 10.2 | 93.0 | 1012.5 | 1.6 | 8.0 | ESE | 0.0 | |||||||||
| 07:15 | 10.2 | 93.0 | 1012.6 | 3.2 | 8.0 | ESE | 0.0 | |||||||||
| 07:30 | 10.1 | 93.0 | 1012.7 | 4.8 | N | 8.0 | ESE | 0.0 | ||||||||
| 07:45 | 10.2 | 93.0 | 1012.8 | 1.6 | 8.0 | ESE | 0.0 | |||||||||
| 08:00 | 10.4 | 93.0 | 1012.9 | 1.6 | N | 8.0 | ESE | 0.0 | ||||||||
| 08:15 | 10.7 | 93.0 | 1013.0 | 1.6 | 8.0 | ESE | 0.0 | |||||||||
| 08:30 | 10.8 | 94.0 | 1013.1 | 8.0 | ESE | 0.0 | ||||||||||
| 08:45 | 11.1 | 94.0 | 1013.1 | 8.0 | ESE | 0.0 | ||||||||||
| 09:00 | 11.2 | 94.0 | 1013.2 | 1.6 | N | 8.0 | ESE | 0.0 | ||||||||
| 09:15 | 11.2 | 94.0 | 1013.3 | 8.0 | ESE | 0.0 | ||||||||||
| 09:30 | 11.7 | 94.0 | 1013.4 | 4.8 | 8.0 | ESE | 0.0 | |||||||||
| 09:45 | 11.8 | 93.0 | 1013.6 | 4.8 | N | 8.0 | ESE | 0.0 | ||||||||
| 10:00 | 12.3 | 93.0 | 1013.3 | 6.4 | N | 8.0 | ESE | 0.0 | ||||||||
| 10:15 | 13.3 | 92.0 | 1013.2 | 3.2 | 8.0 | ESE | 0.0 | |||||||||
| 10:30 | 13.7 | 91.0 | 1013.1 | 3.2 | N | 8.0 | ESE | 0.0 | ||||||||
| 10:45 | 13.4 | 89.0 | 1013.0 | 3.2 | 8.0 | ESE | 0.0 | |||||||||
| 11:00 | 13.2 | 89.0 | 1013.0 | NNE | 8.0 | ESE | 0.0 | |||||||||
| 11:15 | 13.2 | 88.0 | 1012.6 | 8.0 | ESE | 0.0 | ||||||||||
| 11:30 | 13.5 | 87.0 | 1012.7 | 8.0 | ESE | 0.0 | ||||||||||
| 11:45 | 13.5 | 85.0 | 1012.8 | NNE | 8.0 | ESE | 0.0 | |||||||||
| 12:00 | 14.2 | 84.0 | 1012.8 | NNE | 8.0 | ESE | 0.0 | |||||||||
| 12:15 | 14.5 | 82.0 | 1012.7 | 1.6 | 8.0 | ESE | 0.0 | |||||||||
| 12:30 | 15.4 | 80.0 | 1012.5 | 1.6 | N | 8.0 | ESE | 0.0 | ||||||||
| 12:45 | 15.6 | 76.0 | 1012.3 | NNE | 8.0 | ESE | 0.0 | |||||||||
| 13:00 | 15.7 | 73.0 | 1012.4 | 3.2 | 8.0 | ESE | 0.0 | |||||||||
| 13:15 | 15.8 | 73.0 | 1012.1 | 1.6 | 8.0 | ESE | 0.0 | |||||||||
| 13:30 | 16.3 | 71.0 | 1011.9 | NNE | 8.0 | ESE | 0.0 | |||||||||
| 13:45 | 17.6 | 66.0 | 1011.7 | 4.8 | 8.0 | ESE | 0.0 | |||||||||
| 14:00 | 16.6 | 66.0 | 1011.5 | 1.6 | 8.0 | ESE | 0.0 | |||||||||
| 14:15 | 16.7 | 67.0 | 1011.4 | 4.8 | 8.0 | ESE | 0.0 | |||||||||
| 14:30 | 16.6 | 67.0 | 1011.4 | 3.2 | 8.0 | ESE | 0.0 | |||||||||
| 14:45 | 16.4 | 69.0 | 1011.3 | 4.8 | 8.0 | ESE | 0.0 | |||||||||
| 15:00 | 16.0 | 69.0 | 1011.2 | 6.4 | N | 8.0 | ESE | 0.0 | ||||||||
| Máxima | 17.6 | 94.0 | 1014.6 | 8.0 | 8.0 | ESE | 0.6 | |||||||||
| Mínima | 10.1 | 66.0 | 1011.2 | |||||||||||||
| Total | 1.4 | |||||||||||||||